Regional Weather Roundup
Issued by NWS San Diego, CA

Home | Current Version | Previous Version | Text Only | Print | Product List | Glossary On
Versions: 1 2 3 4 5 6 7 8 9 10 11 12 13 14 15 16 17 18 19 20 21 22 23 24 25 26 27 28 29 30 31 32 33 34 35 36 37 38 39 40 41 42 43 44 45 46 47 48 49 50
000
ASUS46 KSGX 230511
RWRSGX

SAN DIEGO HOURLY WEATHER ROUNDUP
NATIONAL WEATHER SERVICE SAN DIEGO CA
1000 PM PDT SAT JUL 22 2017

NOTE: "FAIR" INDICATES FEW OR NO CLOUDS BELOW 12,000 FEET WITH NO
SIGNIFICANT WEATHER AND/OR OBSTRUCTIONS TO VISIBILITY.

CAZ042-043-060-061-PZZ750-775-230600-

GREATER SAN DIEGO AREA

CITY           SKY/WX    TMP DP  RH WIND       PRES   REMARKS
SAN DIEGO AP   PTCLDY    70  60  70 SW5       29.92R
NATIONAL CITY    N/A     69  64  83 CALM      29.92R
CHULA VISTA      N/A     68  64  88 W2        29.83R
IMPERIAL BEACH PTCLDY    67  61  81 SW3       29.92R
BROWN FIELD    CLEAR     67  62  84 CALM      29.91R HAZE
MIRAMAR MCAS   PTCLDY    72  60  66 CALM      29.91R
MONTGOMERY FLD CLEAR     70  62  76 W5        29.91R
GILLESPIE FLD    N/A     70  63  78 CALM      29.91R

$$

NORTH SAN DIEGO COUNTY

CITY           SKY/WX    TMP DP  RH WIND       PRES   REMARKS
CAMP PENDLETON CLEAR     59  32  36 W3        29.90R HAZE
OCEANSIDE AP   CLEAR     70  65  84 SW5       29.89R
OCEANSIDE HBR    N/A     70  66  87 CALM      29.92R
VISTA            N/A     68  63  83 CALM      29.87R
CARLSBAD       CLEAR     69  64  84 S3        29.90R
DEL MAR          N/A     67  64  89 CALM      29.92R
LA JOLLA SCRIP   N/A     67  65  91 S2        29.89S
FALLBROOK        N/A     68  67  96 CALM      29.90R
ESCONDIDO        N/A     70  63  79 CALM      29.91R
SAN MARCOS       N/A     68  62  82 CALM      29.91R
POWAY            N/A     69  62  78 CALM      29.90R

$$

EAST SAN DIEGO COUNTY

CITY           SKY/WX    TMP DP  RH WIND       PRES   REMARKS
RAMONA         CLEAR     69  62  78 W6        29.92R
SANTEE LAKES     N/A     69  63  80 CALM      29.89R
LA MESA          N/A     67  62  84 CALM      29.84R
JAMUL            N/A     66  61  83 CALM      29.89R
DESCANSO N       N/A     69  58  66 NE3       29.78R
CAMPO            N/A     71  57  61 CALM      29.95R

$$

ORANGE COUNTY AND THE LOS ANGELES BASIN

CITY           SKY/WX    TMP DP  RH WIND       PRES   REMARKS
JOHN WAYNE AP  CLEAR     70  65  84 SW7       29.89R
LAKE FOREST FR   N/A     69  61  74 CALM      29.77S
HUNTINGTON BCH   N/A     69  66  88 S5        29.90R
LOS ALAMITOS   FAIR      69  65  88 S6        29.89R
FULLERTON      CLEAR     71  66  84 SE3       29.88R
LONG BEACH     CLEAR     73  65  75 CALM      29.88R
L.A. AP        CLEAR     68  63  84 W10       29.89R
L.A. DOWNTOWN  CLEAR     71  63  75 CALM      29.89R

$$

THE INLAND EMPIRE

CITY           SKY/WX    TMP DP  RH WIND       PRES   REMARKS
CORONA         CLEAR     72  64  76 W7        29.89R
CHINO          CLEAR     73  64  73 NW7       29.90R
ONTARIO        CLEAR     74  63  68 W9        29.90R
SAN BERNARDINO FAIR      79  61  54 W9        29.90R
RIVERSIDE AP   CLEAR     75  64  68 W7        29.89R
MORENO VALLEY    N/A     79  66  63 CALM      28.03R
MARCH ARB      CLEAR     75  61  60 NW5       29.92R
HORSETHIEF CYN   N/A     77  59  54 CALM      29.87R
PERRIS           N/A     78  63  58 NW3       29.89R
HEMET EAST       N/A     78  55  44 CALM      29.90R
FRENCH VALLEY  FAIR      72  61  68 S3        29.93R
TEMECULA         N/A     73  64  74 N1        29.95S

$$

SAN BERNARDINO AND RIVERSIDE COUNTY MOUNTAINS

CITY           SKY/WX    TMP DP  RH WIND       PRES   REMARKS
BIG BEAR AP    CLEAR     63  43  48 CALM      30.27S
PINE COVE        N/A     70  50  48 CALM      29.82R

$$

SOUTHERN DESERT INCLUDING THE COACHELLA VALLEY

CITY           SKY/WX    TMP DP  RH WIND       PRES   REMARKS
PALM SPRINGS   CLEAR    100  59  25 NW13      29.76R HX 100
THOUSAND PALMS   N/A     97  61  30 NW7       29.70R HX  98
PALM DESERT      N/A     99  63  30 NE1       31.27S HX 100
THERMAL        CLEAR     95  64  35 NE5       29.68R HX  97
BLYTHE         PTCLDY   101  59  24 S20       29.74R HX 101
IMPERIAL AP    PTCLDY    98  61  29 SE12      29.69R HX  98
EL CENTRO NAS  CLEAR     93  60  33 SE8       29.72R
YUMA AZ        PTCLDY    93  63  36 S12       29.75R
MEXICALI       CLEAR     90  68  48 SE10      29.73R

$$

UPPER DESERT

CITY           SKY/WX    TMP DP  RH WIND       PRES   REMARKS
VICTORVILLE AP CLEAR     82  46  28 CALM      29.96R
HESPERIA         N/A     83  51  33 W3        29.89R
PALMDALE       CLEAR     87  31  13 NW5       29.94R
LANCASTER      CLEAR     84  39  20 W12       29.93R
EDWARDS AFB    CLEAR     87  24   9 SW13      29.88R
DAGGETT        CLEAR     95  48  20 SW14      29.83R
29 PALMS N     PTCLDY    95  48  20 SW14      29.91R
NEEDLES        PTCLDY   104  58  21 SE21G28   29.76R HX 104

$$

REGIONAL REPORTS

CITY           SKY/WX    TMP DP  RH WIND       PRES   REMARKS
SANTA BARBARA  CLEAR     61  60  97 SE5       29.86R
SANDBERG       CLEAR     76  33  21 SW7       30.12R
LAS VEGAS NV   PTCLDY   102  52  18 S3        29.82R HX  99
PHOENIX AZ     CLOUDY    93  64  38 E8        29.82R
TIJUANA        CLEAR     66  59  77 NW5       29.94R
ENSENADA NW      N/A     68  32  26 CALM      29.88S

$$

OFFSHORE ISLANDS

CITY           SKY/WX    TMP DP  RH WIND       PRES   REMARKS
CATALINA ARPT  CLEAR     71  60  68 CALM      29.94R
SAN NICOLAS IS PTCLDY    55  32  41 W5        29.90R

$$

MARINE AND OFFSHORE BUOY REPORTS

STATION/POSITION SKY/WX   TEMP    WIND        PRES    VSBY  SWELL
                          AIR SEA DIR/SP/G                  HT/PER/DIR
                          (F)     (DEG/KT/KT) (MB)    (MI)  (FT/S/D)
TANNER BANKS               60 63  330/ 12/ 16 1012.3          5/330/ 8
S CLEMENTE BASIN              73  330/  4/  6 1012.3R         3/280/ 8
SAN NICOLAS IS.               63                N/A           2/180/14
SO. S. ROSA ISLA           58 62  310/ 17/ 21 1011.5R         3/310/ 8
W. S. BARBARA CH           56 58  300/ 19/ 23 1010.8R         2/210/14
M. S. BARBARA CH           59 65  240/ 12/ 16 1012.0R         2/250/ 8
S. MONICA BASIN               71  250/  4/  4 1011.5R         3/130/14
S PEDRO CHANNEL               71                N/A           2/160/14
CMP PENDLETON NS              76                N/A           2/210/14
OCEANSIDE OFFSHR              75                N/A           2/190/13
TORREY PINES OTR              75                N/A           2/190/13
SAN DIEGO BAY                 78              1013.0R
POINT LOMA SOUTH              72                N/A           2/190/14

$$




USA.gov is the U.S. government's official web portal to all federal, state and local government web resources and services.